DMSP 5D-2 F13 DEB, 40673

Orbit data source: Space-Track

DMSP 5D-2 F13 DEB, 40673 is space debris in SSO originally from a launch on Fri, 24 Mar 1995 UTC launched from the Air Force Western Test Range (AFWTR). Debris objects in space refer to the collection of defunct objects orbiting the Earth. Examples of debris include non-operational satellites, rocket bodies, and fragments generated from explosions, collisions, or faulty payload assembly.

Loading next visibility...
Identifier
40673, 1995-015FM
Orbit
SSO
Country
Flag of USUS
Related business
Manufacturer
Unknown
Mission
Spacecraft
Bus & Motor
Unknown
Mass
Unknown
Launch date (UTC)
1995-03-24 (31 years ago)
Launch vehicle
Unknown
Launch site
Air Force Western Test Range (AFWTR)
Object type
Payload
Rocket body
Debris
Shape & HBR
Unknown shape, 0.1 m
Radar Cross Section
Small (<0.1 m²)

Expand to show TLE details & history
Last TLE update: 17 hours ago

TLE from 17 hours ago
0 DMSP 5D-2 F13 DEB
1 40673U 95015FM  25347.27932829  .00000719  00000-0  34121-3 0  9994
2 40673  98.7049   0.7736 0022824 203.7654 156.2472 14.22480098554309
Epoch: 2025-12-13T06:42Z
TLE epoch observation values (Epoch: 2025-12-13T06:42:13.964Z)
Latitude
0.00002°
Longitude
178.00654°
Altitude
834.936 km
Speed
7.428 km/s
True Right ascension
00h 03m 05s
True Declination
0° 00' 00"
Sunlit
Object was in daylight at epoch
Visualization orbit readout
Latitude
Unknown
Longitude
Unknown
Altitude
Unknown
Speed
Unknown
Apparent Right ascension
Unknown
Apparent Declination
Unknown
Sunlit
N/A
Visualization observer readout
Local Sidereal Time
22:30:51
Azimuth
Unknown
Elevation
Unknown
Doppler factor
Unknown
Orbital elements
Apogee altitude
830.548 km
Perigee altitude
797.717 km
Semi-major axis
7,192.27 km
Eccentricity
0.00228
Inclination
98.7049°
RAAN
0.7736°
Arg. of periapsis
203.7654°
True anomaly
156.35227°
Mean anomaly
156.2472°
Eccentric anomaly
156.29976°
Mean motion
3.55831 °/min
Orbital period
101.17 mins
BSTAR
0.00034121
Loading maneuver chart data...
Computing Atmospheric mass density...

Documentation

Showing up to 5 results
|